Flag for Germany Weather past 2 weeks in Osterholz-Scharmbeck, Lower Saxony, Germany

Now
51 °F

Partly sunny.


Feels Like: 49 °F
Forecast: 49 / 58 °F
Wind: 6 mph from South

Location: Bremen

Current Time: Oct 24, 2014 at 9:15:29 AM

Latest Report: Oct 24, 2014 at 9:00 AM


Visibility: 8 mi

Pressure: 30.14 "Hg

Humidity: 89%

Dew point: 48 °F

Location of Osterholz-ScharmbeckLocation

Historic Weather in Osterholz-Scharmbeck — Graph

°F

Osterholz-Scharmbeck temperature yesterday

Maximum temperature yesterday: 55 °F (at 3:00 PM)
Minimum temperature yesterday: 43 °F (at 6:00 AM)
Average temperature yesterday: 50 °F

Past Weeks' High & Low Weather Summary

 TemperatureHumidityPressure
High74 °F (Oct 19, 3:00 PM)100% (Oct 14, 7:00 AM)30.19 "Hg (Oct 14, 7:00 AM)
Low43 °F (Oct 23, 6:00 AM)58% (Oct 14, 3:00 PM)29.38 "Hg (Oct 21, 6:00 PM)
Average56 °F87%29.85 "Hg
* Reported Oct 9 8:00 AM — Oct 24 8:00 AM, Osterholz-Scharmbeck, Weather by CustomWeather, © 2014

Note: Actual official high and low records may vary slightly from our data, if they occured in-between our weather recording intervals... More about our weather records

Advertising

Osterholz-Scharmbeck weather history for previous 24 hours

 ConditionsComfort  
Time TempWeatherWind HumidityBarometerVisibility
8:00 AM
Oct 24
50 °FOvercast.3 mph93%30.14 "Hg7 mi
7:00 AM50 °FPassing clouds.5 mph91%30.14 "Hg8 mi
6:00 AM52 °FOvercast.5 mph90%30.14 "Hg9 mi
5:00 AM52 °FOvercast.3 mph89%30.14 "Hg8 mi
4:00 AM53 °FOvercast.3 mph87%30.14 "Hg7 mi
3:00 AM53 °FOvercast.5 mph87%30.15 "Hg7 mi
2:00 AM52 °FOvercast.5 mph87%30.16 "Hg6 mi
1:00 AM52 °FOvercast.5 mph88%30.16 "Hg6 mi
12:00 AM52 °FOvercast.3 mph89%30.17 "Hg6 mi
10:00 PM
Oct 23
52 °FPassing clouds.5 mph88%30.18 "Hg6 mi
9:00 PM53 °FOvercast.5 mph88%30.17 "Hg6 mi
8:00 PM53 °FOvercast.5 mph87%30.17 "Hg5 mi
7:00 PM53 °FFog.5 mph87%30.17 "Hg4 mi
6:00 PM54 °FFog.5 mph86%30.16 "Hg4 mi
4:00 PM55 °FOvercast.5 mph82%30.17 "Hg7 mi
3:00 PM55 °FOvercast.3 mph83%30.17 "Hg7 mi
2:00 PM54 °FOvercast.3 mph81%30.18 "Hg11 mi
1:00 PM53 °FOvercast.3 mph82%30.19 "Hg11 mi
12:00 PM52 °FOvercast.5 mph82%30.19 "Hg9 mi
10:00 AM49 °FPartly sunny.3 mph89%30.18 "Hg11 mi
9:00 AM47 °FPartly sunny.2 mph89%30.17 "Hg12 mi
Weather by CustomWeather, © 2014

See weather overviewHow to use our weather pages